Regional Weather Roundup
Issued by NWS

Home | Current Version | Previous Version | Text Only | Print | Product List | Glossary On
Versions: 1 2 3 4 5 6 7 8 9 10 11 12 13 14 15 16 17 18 19 20 21 22 23 24 25 26 27 28 29 30 31 32 33 34 35 36 37 38 39 40 41 42 43 44 45 46 47 48 49 50
000
ASUS43 KLSX 020059
RWRMO

WEATHER SUMMARY FOR MISSOURI
NATIONAL WEATHER SERVICE SPRINGFIELD MO
800 PM CDT WED APR 01 2015

NOTE: "FAIR" INDICATES FEW OR NO CLOUDS BELOW 12,000 FEET WITH NO
       SIGNIFICANT WEATHER AND/OR OBSTRUCTIONS TO VISIBILITY.
       CURRENT SKY AND/OR WEATHER CONDITIONS ARE NOT AVAILABLE FOR
       CHILLICOTHE AND FARMINGTON.

MOZ001>031-035>038-043-044-053-054-020200-
...NORTHERN AND WESTERN MISSOURI...

CITY           SKY/WX    TMP DP  RH WIND       PRES   REMARKS
KANSAS CTY INT PTCLDY    64  54  69 S17G25    29.71F
KANSAS C DTWN  CLEAR     67  55  65 SE15G21   29.72S
LEE`S SUMMIT   CLEAR     64  55  72 S13       29.74F
ST JOSEPH      CLEAR     68  51  54 SE14G26   29.67F
CHILLICOTHE      N/A     67  53  61 S13G25    29.76S
KIRKSVILLE     CLOUDY    67  51  56 S15       29.78S

$$
MOZ066>068-077>081-088>096-101>105-020200-
...SOUTHWEST MISSOURI...

CITY           SKY/WX    TMP DP  RH WIND       PRES   REMARKS
SPRINGFIELD    MOCLDY    64  60  87 SE13      29.81R
JOPLIN         CLEAR     70  57  63 S12       29.76S

$$
MOZ032>034-039>042-045>050-055>058-069>072-020200-
...CENTRAL MISSOURI...

CITY           SKY/WX    TMP DP  RH WIND       PRES   REMARKS
COLUMBIA       LGT RAIN  59  58  96 SE7       29.82F FOG
JEFFERSON CITY RAIN      60  56  86 E5        29.82F FOG
ROLLA          LGT RAIN  58  54  86 W10       29.87R
SEDALIA        CLOUDY    60  58  92 SE13      29.79F
WHITEMAN AFB   MOCLDY    59  55  88 SE9       29.77F
OSAGE BEACH    CLOUDY    59  54  82 SE6       29.81F

$$
MOZ051-052-059>065-020200-
...EAST CENTRAL MISSOURI...

CITY           SKY/WX    TMP DP  RH WIND       PRES   REMARKS
ST LOUIS INTL  CLOUDY    72  38  29 SE18G24   29.88S
SPIRIT OF STL  CLOUDY    71  40  32 S12       29.86S
ST CHARLES     CLOUDY    69  40  34 S15       29.86F

$$
MOZ072>076-082>087-097>100-106>115-020200-
...SOUTH CENTRAL AND SOUTHEAST MISSOURI...

CITY           SKY/WX    TMP DP  RH WIND       PRES   REMARKS
CAPE GIRARDEAU CLOUDY    63  51  65 SE10      29.92F
FARMINGTON     CLOUDY    64  43  45 S9        29.95R
POPLAR BLUFF   CLOUDY    63  54  72 SE8       29.90F
WEST PLAINS    MOCLDY    64  57  78 SE10      29.88F

$$



USA.gov is the U.S. government's official web portal to all federal, state and local government web resources and services.